Location: Lewisville
(33.0462°N, 96.9942°W)
Time: 10:24:37
(UTC-06:00)

Hubble Space Telescope - Pass Details

Date: 16 December 2021
Orbit: 534 x 538 km, 28.5° (Epoch: 19 January)

Event Time Altitude Azimuth Distance (km) Brightness Sun altitude
Rises 18:33:01 0° 238° (WSW) 2,669 6.0 -14.3°
Reaches altitude 10° 18:35:28 10° 227° (SW) 1,780 4.5 -14.8°
Maximum altitude 18:39:04 29° 166° (SSE) 987 2.1 -15.5°
Enters shadow 18:41:10 19° 120° (ESE) 1,312 2.4 -15.9°
